StationID,Date,MaxTemp,MinTemp,Precipitation,Snowfall,SnowDepth
"USC00315600","1911-04-01",51.98,41.00,0.00,,
"USC00315600","1911-04-02",55.04,35.06,0.00,,
"USC00315600","1911-04-03",59.00,44.06,325.00,,
"USC00315600","1911-04-04",51.08,50.00,0.00,,
"USC00315600","1911-04-05",71.06,60.98,23.00,,
"USC00315600","1911-04-06",71.96,57.92,3.00,,
"USC00315600","1911-04-07",78.08,64.04,0.00,,
"USC00315600","1911-04-08",71.06,50.00,36.00,,
"USC00315600","1911-04-09",51.08,44.06,152.00,,
"USC00315600","1911-04-10",53.96,37.94,0.00,,
"USC00315600","1911-04-11",60.08,39.02,0.00,,
"USC00315600","1911-04-12",60.98,51.08,23.00,,
"USC00315600","1911-04-13",66.92,53.06,0.00,,
"USC00315600","1911-04-14",69.98,55.94,0.00,,
"USC00315600","1911-04-15",66.02,46.94,112.00,,
"USC00315600","1911-04-16",57.02,44.06,25.00,,
"USC00315600","1911-04-17",60.98,46.04,0.00,,
"USC00315600","1911-04-18",62.96,42.98,0.00,,
"USC00315600","1911-04-19",71.06,51.98,0.00,,
"USC00315600","1911-04-20",69.98,51.98,30.00,,
"USC00315600","1911-04-21",60.98,37.94,0.00,,
"USC00315600","1911-04-22",66.92,53.96,91.00,,
"USC00315600","1911-04-23",55.04,42.98,3.00,,
"USC00315600","1911-04-24",57.92,35.06,0.00,,
"USC00315600","1911-04-25",66.02,35.06,0.00,,
"USC00315600","1911-04-26",66.92,37.04,0.00,,
"USC00315600","1911-04-27",69.08,44.06,0.00,,
"USC00315600","1911-04-28",71.06,51.98,0.00,,
"USC00315600","1911-04-29",71.06,55.94,0.00,,
"USC00315600","1911-04-30",71.96,60.98,3.00,,
"USC00315600","1911-05-01",78.08,64.04,53.00,,
"USC00315600","1911-05-02",78.98,60.08,0.00,,
"USC00315600","1911-05-03",62.06,48.02,0.00,,
"USC00315600","1911-05-04",62.96,50.00,0.00,,
"USC00315600","1911-05-05",62.96,53.06,8.00,,
"USC00315600","1911-05-06",62.06,53.06,0.00,,
"USC00315600","1911-05-07",55.94,50.00,46.00,,
"USC00315600","1911-05-08",60.98,46.94,193.00,,
"USC00315600","1911-05-09",73.94,50.00,0.00,,
"USC00315600","1911-05-10",80.96,51.08,0.00,,
"USC00315600","1911-05-11",80.06,57.02,0.00,,
"USC00315600","1911-05-12",78.98,66.02,0.00,,
"USC00315600","1911-05-13",80.06,62.96,0.00,,
"USC00315600","1911-05-14",78.08,60.98,0.00,,
"USC00315600","1911-05-15",73.94,57.02,0.00,,
"USC00315600","1911-05-16",78.98,59.00,0.00,,
"USC00315600","1911-05-17",84.92,66.02,0.00,,
"USC00315600","1911-05-18",86.00,66.92,0.00,,
"USC00315600","1911-05-19",86.00,66.92,0.00,,
"USC00315600","1911-05-20",86.00,66.02,0.00,,
"USC00315600","1911-05-21",80.96,64.04,0.00,,
"USC00315600","1911-05-22",82.94,64.04,0.00,,
"USC00315600","1911-05-23",86.00,64.94,0.00,,
"USC00315600","1911-05-24",84.02,66.92,0.00,,
"USC00315600","1911-05-25",80.96,60.98,0.00,,
"USC00315600","1911-05-26",86.00,64.94,0.00,,
"USC00315600","1911-05-27",73.04,55.94,5.00,,
"USC00315600","1911-05-28",75.02,57.92,0.00,,
"USC00315600","1911-05-29",80.06,60.08,0.00,,
"USC00315600","1911-05-30",80.06,62.96,0.00,,
"USC00315600","1911-05-31",80.96,62.96,0.00,,
"USC00315600","1911-06-01",82.04,66.02,79.00,,
"USC00315600","1911-06-02",80.06,64.94,30.00,,
"USC00315600","1911-06-03",84.92,55.04,0.00,,
"USC00315600","1911-06-04",84.02,71.96,0.00,,
"USC00315600","1911-06-05",78.98,62.96,378.00,,
"USC00315600","1911-06-06",86.00,66.02,0.00,,
"USC00315600","1911-06-07",78.08,66.92,0.00,,
"USC00315600","1911-06-08",75.02,64.04,0.00,,
"USC00315600","1911-06-09",80.96,55.94,0.00,,
"USC00315600","1911-06-10",78.98,53.06,0.00,,
"USC00315600","1911-06-11",86.00,62.96,0.00,,
"USC00315600","1911-06-12",89.06,69.98,0.00,,
"USC00315600","1911-06-13",86.00,68.00,130.00,,
"USC00315600","1911-06-14",82.94,66.92,0.00,,
"USC00315600","1911-06-15",80.06,62.96,0.00,,
"USC00315600","1911-06-16",84.92,62.06,0.00,,
"USC00315600","1911-06-17",80.06,62.06,0.00,,
"USC00315600","1911-06-18",91.94,71.06,0.00,,
"USC00315600","1911-06-19",84.02,68.00,0.00,,
"USC00315600","1911-06-20",87.98,69.98,38.00,,
"USC00315600","1911-06-21",82.04,71.96,0.00,,
"USC00315600","1911-06-22",86.00,62.96,0.00,,
"USC00315600","1911-06-23",93.92,71.96,0.00,,
"USC00315600","1911-06-24",91.94,73.94,0.00,,
"USC00315600","1911-06-25",87.98,69.98,0.00,,
"USC00315600","1911-06-26",91.04,75.02,0.00,,
"USC00315600","1911-06-27",93.02,75.02,0.00,,
"USC00315600","1911-06-28",91.94,73.94,0.00,,
"USC00315600","1911-06-29",91.04,69.08,343.00,,
"USC00315600","1911-06-30",84.02,66.92,0.00,,
"USC00315600","1911-07-01",82.94,60.98,0.00,,
"USC00315600","1911-07-02",84.92,62.06,0.00,,
"USC00315600","1911-07-03",86.00,71.06,0.00,,
"USC00315600","1911-07-04",86.00,73.94,0.00,,
"USC00315600","1911-07-05",87.98,73.94,0.00,,
"USC00315600","1911-07-06",89.06,75.02,0.00,,
"USC00315600","1911-07-07",89.96,73.04,0.00,,
"USC00315600","1911-07-08",89.96,69.98,0.00,,
"USC00315600","1911-07-09",89.96,68.00,0.00,,
"USC00315600","1911-07-10",93.02,73.04,0.00,,
"USC00315600","1911-07-11",95.00,73.94,0.00,,
"USC00315600","1911-07-12",93.02,75.92,0.00,,
"USC00315600","1911-07-13",86.00,71.96,13.00,,
"USC00315600","1911-07-14",87.98,69.98,23.00,,
"USC00315600","1911-07-15",84.92,68.00,0.00,,
"USC00315600","1911-07-16",84.92,66.92,0.00,,
"USC00315600","1911-07-17",89.06,69.08,142.00,,
"USC00315600","1911-07-18",84.02,69.98,5.00,,
"USC00315600","1911-07-19",86.00,69.08,279.00,,
"USC00315600","1911-07-20",89.06,66.92,0.00,,
"USC00315600","1911-07-21",,,0.00,,
"USC00315600","1911-07-22",84.92,71.06,254.00,,
"USC00315600","1911-07-23",84.02,71.96,0.00,,
"USC00315600","1911-07-24",84.02,82.04,0.00,,
"USC00315600","1911-07-25",84.02,73.94,0.00,,
"USC00315600","1911-07-26",84.92,68.00,0.00,,
"USC00315600","1911-07-27",84.02,66.02,0.00,,
"USC00315600","1911-07-28",84.02,66.92,0.00,,
"USC00315600","1911-07-29",84.92,64.04,0.00,,
"USC00315600","1911-07-30",87.98,66.02,0.00,,
"USC00315600","1911-07-31",87.08,68.00,0.00,,
"USC00315600","1911-08-01",87.98,66.02,0.00,,
"USC00315600","1911-08-02",87.08,64.04,0.00,,
"USC00315600","1911-08-03",87.98,69.08,0.00,,
"USC00315600","1911-08-04",89.06,69.98,0.00,,
"USC00315600","1911-08-05",82.04,69.98,272.00,,
"USC00315600","1911-08-06",82.94,71.06,25.00,,
"USC00315600","1911-08-07",86.00,71.96,33.00,,
"USC00315600","1911-08-08",86.00,68.00,0.00,,
"USC00315600","1911-08-09",86.00,64.94,0.00,,
"USC00315600","1911-08-10",87.98,66.02,0.00,,
"USC00315600","1911-08-11",91.04,69.98,0.00,,
"USC00315600","1911-08-12",93.92,73.04,0.00,,
"USC00315600","1911-08-13",91.94,71.96,130.00,,
"USC00315600","1911-08-14",91.04,71.96,0.00,,
"USC00315600","1911-08-15",87.98,71.06,0.00,,
"USC00315600","1911-08-16",89.06,69.98,0.00,,
"USC00315600","1911-08-17",93.02,62.96,0.00,,
"USC00315600","1911-08-18",91.04,71.96,216.00,,
"USC00315600","1911-08-19",84.02,73.04,0.00,,
"USC00315600","1911-08-20",,,0.00,,
"USC00315600","1911-08-21",80.06,62.06,165.00,,
"USC00315600","1911-08-22",78.98,66.92,320.00,,
"USC00315600","1911-08-23",86.00,64.04,0.00,,
"USC00315600","1911-08-24",87.98,71.06,0.00,,
"USC00315600","1911-08-25",87.08,71.96,0.00,,
"USC00315600","1911-08-26",86.00,68.00,0.00,,
"USC00315600","1911-08-27",86.00,78.08,51.00,,
"USC00315600","1911-08-28",87.08,78.98,0.00,,
"USC00315600","1911-08-29",91.04,75.92,0.00,,
"USC00315600","1911-08-30",86.00,73.04,64.00,,
"USC00315600","1911-08-31",84.92,73.04,79.00,,
"USC00315600","1911-09-01",78.98,66.02,97.00,,
"USC00315600","1911-09-02",84.02,62.06,0.00,,
"USC00315600","1911-09-03",80.06,73.04,0.00,,
"USC00315600","1911-09-04",84.92,71.96,69.00,,
"USC00315600","1911-09-05",84.92,69.08,0.00,,
"USC00315600","1911-09-06",84.92,73.94,0.00,,
"USC00315600","1911-09-07",84.92,73.04,0.00,,
"USC00315600","1911-09-08",89.06,69.98,305.00,,
"USC00315600","1911-09-09",86.00,71.06,0.00,,
"USC00315600","1911-09-10",87.98,71.06,0.00,,
"USC00315600","1911-09-11",82.04,68.00,33.00,,
"USC00315600","1911-09-12",,,51.00,,
"USC00315600","1911-09-14",78.98,53.06,43.00,,
"USC00315600","1911-09-15",78.98,53.96,0.00,,
"USC00315600","1911-09-16",87.98,73.04,0.00,,
"USC00315600","1911-09-17",82.94,62.96,381.00,,
"USC00315600","1911-09-18",78.08,60.98,0.00,,
"USC00315600","1911-09-19",78.08,53.06,0.00,,
"USC00315600","1911-09-21",80.06,60.98,0.00,,
"USC00315600","1911-09-22",84.02,64.94,0.00,,
"USC00315600","1911-09-23",84.92,73.04,0.00,,
"USC00315600","1911-09-24",82.04,68.00,0.00,,
"USC00315600","1911-09-25",84.92,68.00,0.00,,
"USC00315600","1911-09-26",82.94,66.92,333.00,,
"USC00315600","1911-09-27",87.98,69.08,86.00,,
"USC00315600","1911-09-28",87.08,66.92,23.00,,
"USC00315600","1911-09-29",87.08,66.92,18.00,,
"USC00315600","1911-09-30",78.98,64.94,0.00,,
"USC00315600","1911-10-01",78.98,53.96,0.00,,
"USC00315600","1911-10-02",87.98,69.98,0.00,,
"USC00315600","1911-10-03",80.06,64.04,0.00,,
"USC00315600","1911-10-04",82.04,66.02,0.00,,
"USC00315600","1911-10-05",78.08,66.92,0.00,,
"USC00315600","1911-10-06",71.06,51.08,0.00,,
"USC00315600","1911-10-07",91.04,62.06,0.00,,
"USC00315600","1911-10-08",80.96,60.98,0.00,,
"USC00315600","1911-10-09",71.96,53.96,0.00,,
"USC00315600","1911-10-10",73.04,62.06,0.00,,
"USC00315600","1911-10-11",80.96,60.98,0.00,,
"USC00315600","1911-10-12",73.04,60.08,0.00,,
"USC00315600","1911-10-13",71.06,50.00,0.00,,
"USC00315600","1911-10-14",66.92,42.08,0.00,,
"USC00315600","1911-10-15",73.94,57.02,170.00,,
"USC00315600","1911-10-16",73.04,60.08,0.00,,
"USC00315600","1911-10-17",75.02,53.96,0.00,,
"USC00315600","1911-10-18",71.06,64.94,635.00,,
"USC00315600","1911-10-19",73.04,53.96,0.00,,
"USC00315600","1911-10-20",69.98,66.02,0.00,,
"USC00315600","1911-10-21",73.94,62.06,0.00,,
"USC00315600","1911-10-22",71.96,53.96,0.00,,
"USC00315600","1911-10-23",69.98,57.92,41.00,,
"USC00315600","1911-10-24",66.92,53.96,0.00,,
"USC00315600","1911-10-25",71.06,48.92,5.00,,
"USC00315600","1911-10-26",71.06,57.02,0.00,,
"USC00315600","1911-10-27",69.98,44.96,0.00,,
"USC00315600","1911-10-28",64.04,55.94,422.00,,
"USC00315600","1911-10-29",68.00,55.04,13.00,,
"USC00315600","1911-10-30",69.08,46.94,0.00,,
"USC00315600","1911-10-31",69.08,53.06,61.00,,
"USC00315600","1911-11-01",71.96,59.00,208.00,,
"USC00315600","1911-11-02",64.04,46.94,0.00,,
"USC00315600","1911-11-03",53.06,33.98,0.00,,
"USC00315600","1911-11-04",62.96,39.92,3.00,,
"USC00315600","1911-11-05",66.92,53.96,0.00,,
"USC00315600","1911-11-06",69.08,51.98,0.00,,
"USC00315600","1911-11-07",71.06,60.08,13.00,,
"USC00315600","1911-11-08",64.94,46.94,0.00,,
"USC00315600","1911-11-09",62.06,51.98,236.00,,
"USC00315600","1911-11-10",57.92,51.08,0.00,,
"USC00315600","1911-11-11",66.02,39.92,0.00,,
"USC00315600","1911-11-12",73.94,53.96,0.00,,
"USC00315600","1911-11-13",69.08,30.92,0.00,,
"USC00315600","1911-11-14",55.04,30.02,0.00,,
"USC00315600","1911-11-15",62.96,48.02,41.00,,
"USC00315600","1911-11-16",62.96,44.06,0.00,,
"USC00315600","1911-11-17",59.00,33.08,0.00,,
"USC00315600","1911-11-18",69.98,55.04,10.00,,
"USC00315600","1911-11-19",64.04,37.04,0.00,,
"USC00315600","1911-11-20",64.04,30.92,0.00,,
"USC00315600","1911-11-21",59.00,44.06,0.00,,
"USC00315600","1911-11-22",50.00,30.92,0.00,,
"USC00315600","1911-11-23",62.06,26.96,0.00,,
"USC00315600","1911-11-24",69.08,51.98,18.00,,
"USC00315600","1911-11-25",55.94,32.00,13.00,,
"USC00315600","1911-11-26",57.02,30.92,0.00,,
"USC00315600","1911-11-27",60.98,26.96,0.00,,
"USC00315600","1911-11-28",64.04,41.00,109.00,,
"USC00315600","1911-11-29",60.98,46.04,15.00,,
"USC00315600","1911-11-30",57.02,33.08,0.00,,
"USC00315600","1911-12-01",51.08,28.04,0.00,,
"USC00315600","1911-12-02",57.02,35.96,0.00,,
"USC00315600","1911-12-03",59.00,26.96,0.00,,
"USC00315600","1911-12-04",51.08,35.96,20.00,,
"USC00315600","1911-12-05",42.98,26.06,0.00,,
"USC00315600","1911-12-06",57.02,24.98,0.00,,
"USC00315600","1911-12-07",59.00,28.04,0.00,,
"USC00315600","1911-12-08",62.06,30.02,0.00,,
"USC00315600","1911-12-09",62.96,30.02,0.00,,
"USC00315600","1911-12-10",66.02,33.08,0.00,,
"USC00315600","1911-12-11",69.08,42.98,0.00,,
"USC00315600","1911-12-12",68.00,53.06,0.00,,
"USC00315600","1911-12-13",71.96,48.02,0.00,,
"USC00315600","1911-12-14",66.92,46.04,18.00,,
"USC00315600","1911-12-15",64.04,53.06,38.00,,
"USC00315600","1911-12-16",66.02,53.06,51.00,,
"USC00315600","1911-12-17",66.02,48.02,15.00,,
"USC00315600","1911-12-18",48.92,39.02,0.00,,
"USC00315600","1911-12-19",44.06,28.94,0.00,,
"USC00315600","1911-12-20",,30.92,0.00,,
"USC00315600","1911-12-21",,44.96,292.00,,
"USC00315600","1911-12-22",,53.96,8.00,,
"USC00315600","1911-12-23",,55.04,99.00,,
"USC00315600","1911-12-24",,50.00,64.00,,
"USC00315600","1911-12-25",,42.98,10.00,,
"USC00315600","1911-12-26",62.06,35.96,10.00,,
"USC00315600","1911-12-27",68.00,55.04,13.00,,
"USC00315600","1911-12-28",64.94,33.08,0.00,,
"USC00315600","1911-12-29",46.94,24.08,0.00,,
"USC00315600","1911-12-30",51.08,30.92,0.00,,
"USC00315600","1911-12-31",62.96,44.96,15.00,,
"USC00315600","1912-01-01",60.98,46.04,10.00,0.00,
"USC00315600","1912-01-02",51.98,42.98,0.00,0.00,
"USC00315600","1912-01-03",50.00,42.98,20.00,0.00,
"USC00315600","1912-01-04",44.96,35.96,132.00,0.00,
"USC00315600","1912-01-05",42.98,28.94,0.00,0.00,
"USC00315600","1912-01-06",30.02,12.92,0.00,0.00,
"USC00315600","1912-01-07",37.04,21.02,71.00,0.00,
"USC00315600","1912-01-08",55.04,26.06,251.00,0.00,
"USC00315600","1912-01-09",62.06,33.08,411.00,0.00,
"USC00315600","1912-01-10",42.98,28.04,0.00,0.00,
"USC00315600","1912-01-11",44.06,28.94,0.00,0.00,
"USC00315600","1912-01-12",42.08,30.92,137.00,0.00,
"USC00315600","1912-01-13",32.00,17.96,76.00,76.00,76.00
"USC00315600","1912-01-14",35.96,21.02,51.00,51.00,51.00
"USC00315600","1912-01-15",33.08,28.94,201.00,0.00,
"USC00315600","1912-01-16",32.00,15.08,0.00,0.00,
"USC00315600","1912-01-17",37.04,15.08,0.00,0.00,
"USC00315600","1912-01-18",50.00,32.00,0.00,0.00,
"USC00315600","1912-01-19",64.94,42.08,0.00,0.00,
"USC00315600","1912-01-20",57.92,28.94,0.00,0.00,
"USC00315600","1912-01-21",50.00,30.92,13.00,0.00,
"USC00315600","1912-01-22",57.02,28.04,0.00,0.00,
"USC00315600","1912-01-23",55.04,35.96,0.00,0.00,
"USC00315600","1912-01-24",60.98,33.98,0.00,0.00,
"USC00315600","1912-01-25",50.00,32.00,0.00,0.00,
"USC00315600","1912-01-26",55.94,35.96,0.00,0.00,
"USC00315600","1912-01-27",53.96,32.00,0.00,0.00,
"USC00315600","1912-01-28",41.00,26.06,0.00,0.00,
"USC00315600","1912-01-29",62.96,35.06,5.00,0.00,
"USC00315600","1912-01-30",62.96,37.94,216.00,0.00,
"USC00315600","1912-01-31",41.00,32.00,0.00,0.00,
"USC00315600","1912-02-01",44.06,28.04,0.00,0.00,
"USC00315600","1912-02-02",44.96,32.00,0.00,0.00,
"USC00315600","1912-02-03",44.06,26.06,0.00,0.00,
"USC00315600","1912-02-04",48.92,30.92,0.00,0.00,
"USC00315600","1912-02-05",35.06,19.94,0.00,0.00,
"USC00315600","1912-02-06",35.06,19.94,0.00,0.00,
"USC00315600","1912-02-07",39.92,21.02,0.00,0.00,
"USC00315600","1912-02-08",46.94,24.98,0.00,0.00,
"USC00315600","1912-02-09",48.92,26.96,0.00,0.00,
"USC00315600","1912-02-10",46.04,26.06,0.00,0.00,
"USC00315600","1912-02-11",28.04,19.04,178.00,178.00,
"USC00315600","1912-02-12",39.02,-2.02,0.00,0.00,
"USC00315600","1912-02-13",41.00,12.02,0.00,0.00,
"USC00315600","1912-02-14",42.98,23.00,0.00,0.00,
"USC00315600","1912-02-15",51.98,35.96,361.00,0.00,
"USC00315600","1912-02-16",51.98,37.04,5.00,0.00,
"USC00315600","1912-02-17",51.08,32.00,0.00,0.00,
"USC00315600","1912-02-18",55.04,44.06,76.00,0.00,
"USC00315600","1912-02-19",57.02,39.92,0.00,0.00,
"USC00315600","1912-02-20",62.06,42.98,0.00,0.00,
"USC00315600","1912-02-21",60.08,44.06,315.00,0.00,
"USC00315600","1912-02-22",62.06,37.04,51.00,0.00,
"USC00315600","1912-02-23",44.96,30.02,0.00,0.00,
"USC00315600","1912-02-24",55.04,30.02,36.00,0.00,
"USC00315600","1912-02-25",51.98,46.04,71.00,0.00,
"USC00315600","1912-02-26",64.04,44.06,38.00,0.00,
"USC00315600","1912-02-27",62.96,51.08,10.00,0.00,
"USC00315600","1912-02-28",53.96,30.92,0.00,0.00,
"USC00315600","1912-02-29",55.94,39.02,0.00,0.00,
"USC00315600","1912-03-01",53.06,35.96,0.00,0.00,
"USC00315600","1912-03-02",42.98,28.04,0.00,0.00,
"USC00315600","1912-03-03",39.92,28.94,30.00,0.00,
"USC00315600","1912-03-04",44.96,33.08,292.00,0.00,
"USC00315600","1912-03-05",44.06,33.98,0.00,0.00,
"USC00315600","1912-03-06",57.02,33.98,533.00,0.00,
"USC00315600","1912-03-07",46.04,35.06,13.00,0.00,
"USC00315600","1912-03-08",51.98,32.00,0.00,0.00,
"USC00315600","1912-03-09",51.08,44.06,69.00,0.00,
"USC00315600","1912-03-10",44.96,28.04,0.00,0.00,
"USC00315600","1912-03-11",44.96,28.94,0.00,0.00,
"USC00315600","1912-03-12",57.02,39.92,137.00,0.00,
"USC00315600","1912-03-13",62.96,48.02,10.00,0.00,
"USC00315600","1912-03-14",60.98,39.02,0.00,0.00,
"USC00315600","1912-03-15",66.92,46.94,3.00,0.00,
"USC00315600","1912-03-16",64.04,48.02,246.00,0.00,
"USC00315600","1912-03-17",60.98,37.04,0.00,0.00,
"USC00315600","1912-03-18",69.08,44.96,0.00,0.00,
"USC00315600","1912-03-19",69.98,46.94,0.00,0.00,
"USC00315600","1912-03-20",78.98,57.92,0.00,0.00,
"USC00315600","1912-03-21",75.92,55.94,0.00,0.00,
"USC00315600","1912-03-22",66.92,39.02,5.00,0.00,
"USC00315600","1912-03-23",50.00,37.94,41.00,0.00,
"USC00315600","1912-03-24",62.06,48.92,178.00,0.00,
"USC00315600","1912-03-25",62.96,41.00,8.00,0.00,
"USC00315600","1912-03-26",62.06,35.96,0.00,0.00,
"USC00315600","1912-03-27",68.00,46.04,0.00,0.00,
"USC00315600","1912-03-28",66.92,48.02,0.00,0.00,
"USC00315600","1912-03-29",69.08,60.08,378.00,0.00,
"USC00315600","1912-03-30",66.92,51.98,0.00,0.00,
"USC00315600","1912-03-31",62.96,44.06,0.00,0.00,
"USC00315600","1912-04-01",73.04,51.08,0.00,,
"USC00315600","1912-04-02",73.94,60.98,0.00,,
"USC00315600","1912-04-03",71.06,46.94,0.00,,
"USC00315600","1912-04-04",55.94,37.94,0.00,,
"USC00315600","1912-04-05",64.04,42.98,0.00,,
"USC00315600","1912-04-06",69.98,55.94,0.00,,
"USC00315600","1912-04-07",69.08,59.00,0.00,,
"USC00315600","1912-04-08",64.94,41.00,64.00,,
"USC00315600","1912-04-09",64.04,39.92,0.00,,
"USC00315600","1912-04-10",71.06,55.04,0.00,,
"USC00315600","1912-04-11",69.08,48.02,0.00,,
"USC00315600","1912-04-12",75.92,46.04,0.00,,
"USC00315600","1912-04-13",69.98,60.08,246.00,,
"USC00315600","1912-04-14",73.94,59.00,0.00,,
"USC00315600","1912-04-15",75.92,62.96,0.00,,
"USC00315600","1912-04-16",71.96,66.02,20.00,,
"USC00315600","1912-04-17",71.06,66.02,216.00,,
"USC00315600","1912-04-18",69.98,55.04,0.00,,
"USC00315600","1912-04-19",64.94,46.94,18.00,,
"USC00315600","1912-04-20",66.92,51.98,102.00,,
"USC00315600","1912-04-21",71.06,60.08,5.00,,
"USC00315600","1912-04-22",,,0.00,,
"USC00315600","1912-04-23",,,0.00,,
"USC00315600","1912-04-24",73.04,44.06,0.00,,
"USC00315600","1912-04-25",71.96,53.06,0.00,,
"USC00315600","1912-04-26",71.96,55.94,0.00,,
"USC00315600","1912-04-27",75.92,62.06,0.00,,
"USC00315600","1912-04-28",71.96,57.92,0.00,,
"USC00315600","1912-04-29",80.06,51.98,0.00,,
"USC00315600","1912-04-30",78.98,55.94,356.00,,
"USC00315600","1912-05-01",62.96,48.02,0.00,,
"USC00315600","1912-05-02",71.96,46.94,0.00,,
"USC00315600","1912-05-03",78.08,60.08,0.00,,
"USC00315600","1912-05-04",71.96,57.92,0.00,,
"USC00315600","1912-05-05",73.04,53.06,0.00,,
"USC00315600","1912-05-06",75.92,66.92,3.00,,
"USC00315600","1912-05-07",77.00,69.08,89.00,,
"USC00315600","1912-05-08",77.00,64.94,61.00,,
"USC00315600","1912-05-09",82.04,62.96,0.00,,
"USC00315600","1912-05-10",78.98,50.00,0.00,,
"USC00315600","1912-05-11",75.92,51.08,0.00,,
"USC00315600","1912-05-12",73.04,64.04,193.00,,
"USC00315600","1912-05-13",78.98,59.00,800.00,,
"USC00315600","1912-05-14",77.00,55.04,0.00,,
"USC00315600","1912-05-15",73.04,59.00,0.00,,
"USC00315600","1912-05-16",75.92,64.94,64.00,,
"USC00315600","1912-05-17",73.94,59.00,0.00,,
"USC00315600","1912-05-18",73.04,51.98,0.00,,
"USC00315600","1912-05-19",75.92,53.96,0.00,,
"USC00315600","1912-05-20",78.08,59.00,0.00,,
"USC00315600","1912-05-21",80.06,51.98,51.00,,
"USC00315600","1912-05-22",,,0.00,,
"USC00315600","1912-05-23",75.02,69.98,127.00,,
"USC00315600","1912-05-24",80.96,69.08,25.00,,
"USC00315600","1912-05-25",87.98,62.06,102.00,,
"USC00315600","1912-05-26",75.92,57.02,0.00,,
"USC00315600","1912-05-27",80.06,57.92,0.00,,
"USC00315600","1912-05-28",82.94,73.04,0.00,,
"USC00315600","1912-05-29",82.04,69.98,89.00,,
"USC00315600","1912-05-30",,,0.00,,
"USC00315600","1912-05-31",77.00,69.08,0.00,,
"USC00315600","1912-06-01",82.04,75.92,0.00,,
"USC00315600","1912-06-02",82.94,71.96,0.00,,
"USC00315600","1912-06-03",86.00,73.04,5.00,,
"USC00315600","1912-06-05",84.02,69.98,20.00,20.00,
"USC00315600","1912-06-06",80.06,71.06,38.00,,
"USC00315600","1912-06-07",,,0.00,,
"USC00315600","1912-06-08",75.92,55.04,406.00,41.00,
"USC00315600","1912-06-09",71.06,50.00,0.00,,
"USC00315600","1912-06-10",73.04,51.08,0.00,,
"USC00315600","1912-06-11",73.94,51.08,0.00,,
"USC00315600","1912-06-12",75.92,51.08,0.00,,
"USC00315600","1912-06-13",82.94,62.96,0.00,,
"USC00315600","1912-06-14",80.96,64.94,114.00,,
"USC00315600","1912-06-15",75.92,62.96,297.00,,
"USC00315600","1912-06-16",87.08,66.92,0.00,,
"USC00315600","1912-06-17",87.98,71.06,0.00,,
"USC00315600","1912-06-18",93.02,73.94,0.00,,
"USC00315600","1912-06-19",91.94,71.96,0.00,,
"USC00315600","1912-06-20",86.00,68.00,137.00,,
"USC00315600","1912-06-21",80.06,66.92,33.00,,
"USC00315600","1912-06-22",78.08,66.92,33.00,,
"USC00315600","1912-06-23",80.96,66.02,0.00,,
"USC00315600","1912-06-24",80.06,68.00,0.00,,
"USC00315600","1912-06-25",78.08,66.92,373.00,,
"USC00315600","1912-06-26",82.04,71.96,0.00,,
"USC00315600","1912-06-27",82.04,66.92,18.00,,
"USC00315600","1912-06-28",84.02,68.00,0.00,,
"USC00315600","1912-06-29",84.92,69.98,0.00,,
"USC00315600","1912-06-30",87.98,73.04,5.00,,
"USC00315600","1912-07-01",75.92,66.92,5.00,,
"USC00315600","1912-07-02",,,0.00,,
"USC00315600","1912-07-03",80.06,64.04,0.00,,
"USC00315600","1912-07-04",84.02,60.98,0.00,,
"USC00315600","1912-07-05",82.04,64.04,0.00,,
"USC00315600","1912-07-06",82.04,69.08,0.00,,
"USC00315600","1912-07-07",86.00,68.00,0.00,,
"USC00315600","1912-07-08",82.94,69.98,46.00,,
"USC00315600","1912-07-09",87.08,73.94,0.00,,
"USC00315600","1912-07-10",86.00,69.98,0.00,,
"USC00315600","1912-07-11",86.00,71.96,0.00,,
"USC00315600","1912-07-12",86.00,69.08,0.00,,
"USC00315600","1912-07-13",86.00,71.06,0.00,,
"USC00315600","1912-07-14",87.08,77.00,0.00,,
"USC00315600","1912-07-15",87.08,71.96,0.00,,
"USC00315600","1912-07-16",87.08,71.06,0.00,,
"USC00315600","1912-07-17",87.98,73.04,0.00,,
"USC00315600","1912-07-18",87.08,71.96,97.00,,
"USC00315600","1912-07-19",78.98,69.98,754.00,,
"USC00315600","1912-07-20",86.00,71.06,0.00,,
"USC00315600","1912-07-21",91.94,77.00,0.00,,
"USC00315600","1912-07-22",84.02,69.98,0.00,,
"USC00315600","1912-07-23",82.94,62.96,0.00,,
"USC00315600","1912-07-24",82.04,71.06,89.00,,
"USC00315600","1912-07-25",87.98,68.00,0.00,,
"USC00315600","1912-07-26",84.92,64.04,0.00,,
"USC00315600","1912-07-27",84.02,66.02,0.00,,
"USC00315600","1912-07-28",86.00,62.96,0.00,,
"USC00315600","1912-07-29",87.98,71.96,0.00,,
"USC00315600","1912-07-30",84.92,73.94,0.00,,
"USC00315600","1912-07-31",84.92,62.06,30.00,,
"USC00315600","1912-08-01",82.04,69.98,23.00,,
"USC00315600","1912-08-02",84.02,62.96,0.00,,
"USC00315600","1912-08-03",82.04,69.08,0.00,,
"USC00315600","1912-08-04",75.92,64.04,0.00,,
"USC00315600","1912-08-05",78.08,55.04,0.00,,
"USC00315600","1912-08-06",78.98,57.02,0.00,,
"USC00315600","1912-08-07",80.06,62.06,0.00,,
"USC00315600","1912-08-08",82.94,64.94,0.00,,
"USC00315600","1912-08-09",80.96,69.98,196.00,,
"USC00315600","1912-08-10",84.92,71.96,0.00,,
"USC00315600","1912-08-11",87.08,71.06,0.00,,
"USC00315600","1912-08-12",87.98,71.06,0.00,,
"USC00315600","1912-08-13",91.04,73.94,0.00,,
"USC00315600","1912-08-14",91.94,73.04,0.00,,